Вернуться в каталог

METEOR 2-5 DEB

АктивенPO
NORAD 45512·DEBRIS·🇷🇺 Russia

Запущен Oct 31, 1979 с Plesetsk Cosmodrome

Loading…

Ближайшие Пролёты (ближайшие 24 часа)

TLE

СвежийSource: Space-Track

Эпоха: Sep 13, 2026, 06:58 UTC

1 45512U 79095CU  26256.29080255  .00002153  00000-0  84777-3 0  9996
2 45512  81.2227 104.9142 0014322 317.6725  42.3350 14.28869204578691

Отслеживайте METEOR 2-5 DEB в реальном времени с AllMySat

Download on the App Store